Date String (YYYY-MM-DD hh:mm:ss) UTC,Instrument flags,absolute air pressure of the measurement (hPa),sample flow rate (lpm),inlet stack bypass flow (lpm),air temperature of the measurement (°C),ambient temperature measured by the external sensor (°C),aerosol sample conditioner tube jacket temperature (°C),OPC LED temperature (°C),internal box temperature (°C),relative humidity of the measurement (%),span deviation,mass concentration of particles derived from Lorenz-Mie calculation of OPC scattering (μg/m³),mass concentration of particles derived from Lorenz-Mie calculation of OPC scattering (μg/m³),mass concentration of particles derived from Lorenz-Mie calculation of OPC scattering (μg/m³)
DateTimeUTC,F1_M11,P_M11,Q1_M11,Q2_M11,T1_M11,T2_M11,T3_M11,T4_M11,T5_M11,U1_M11,ZSPAN_M11,X0_M11,X2_M11,X1_M11
2024-03-06 08:00:00,SystemResetWarning,0823.2,5.00,000.00,018.7,018.0,000.0,027.0,020.3,18.8,0000.0,0015.17,0004.73,0003.69
2024-03-06 08:01:00,SystemResetWarning,0823.1,5.00,000.00,018.6,018.0,000.0,027.0,020.3,18.8,0000.0,0015.99,0004.73,0003.68
2024-03-06 08:02:00,SystemResetWarning,0823.1,5.01,000.00,018.6,018.0,000.0,027.0,020.3,18.8,0000.0,0016.23,0004.72,0003.67
2024-03-06 08:03:00,SystemResetWarning,0823.1,5.00,000.00,018.6,018.0,000.0,027.0,020.3,18.8,0000.0,0016.45,0004.69,0003.64
2024-03-06 08:04:00,SystemResetWarning,0823.1,5.00,000.00,018.6,018.0,000.0,027.0,020.3,18.8,0000.0,0016.60,0004.63,0003.60
2024-03-06 08:05:00,SystemResetWarning,0823.1,5.01,000.00,018.6,017.9,000.0,027.0,020.3,18.7,0000.0,0015.83,0004.57,0003.57
2024-03-06 08:06:00,SystemResetWarning,0823.1,5.00,000.00,018.6,017.9,000.0,027.0,020.3,18.7,0000.0,0015.67,0004.52,0003.54
2024-03-06 08:07:00,SystemResetWarning,0823.1,4.99,000.00,018.6,017.9,000.0,027.0,020.3,18.7,0000.0,0016.00,0004.46,0003.49
2024-03-06 08:08:00,SystemResetWarning,0823.1,5.00,000.00,018.6,017.9,000.0,027.0,020.3,18.6,0000.0,0016.34,0004.40,0003.43
2024-03-06 08:09:00,SystemResetWarning,0823.0,5.01,000.00,018.6,017.9,000.0,027.0,020.2,18.6,0000.0,0015.24,0004.32,0003.36
2024-03-06 08:10:00,SystemResetWarning,0823.0,5.02,000.00,018.5,017.9,000.0,027.0,020.2,18.4,0000.0,0014.70,0004.21,0003.31
2024-03-06 08:11:00,SystemResetWarning,0823.0,5.00,000.00,018.5,017.8,000.0,027.0,020.2,18.3,0000.0,0014.48,0004.12,0003.22
2024-03-06 08:12:00,SystemResetWarning,0823.0,5.00,000.00,018.5,017.8,000.0,027.0,020.2,18.1,0000.0,0013.93,0004.04,0003.15
2024-03-06 08:13:00,SystemResetWarning,0823.0,4.99,000.00,018.5,017.8,000.0,027.0,020.2,18.2,0000.0,0013.46,0003.92,0003.02
2024-03-06 08:14:00,SystemResetWarning,0823.0,4.99,000.00,018.5,017.8,000.0,027.0,020.2,18.4,0000.0,0012.82,0003.75,0002.84
2024-03-06 08:15:00,SystemResetWarning,0823.0,5.01,000.00,018.5,017.8,000.0,027.0,020.1,18.5,0000.0,0011.96,0003.65,0002.66
2024-03-06 08:16:00,SystemResetWarning,0822.9,5.01,000.00,018.4,017.8,000.0,027.0,020.1,18.5,0000.0,0011.09,0003.52,0002.49
2024-03-06 08:17:00,SystemResetWarning,0822.9,5.01,000.00,018.4,017.7,000.0,027.0,020.1,18.5,0000.0,0011.46,0003.46,0002.33
2024-03-06 08:18:00,SystemResetWarning,0822.9,4.99,000.00,018.4,017.7,000.0,027.0,020.1,18.4,0000.0,0011.03,0003.36,0002.18
2024-03-06 08:19:00,SystemResetWarning,0823.0,5.00,000.00,018.4,017.7,000.0,027.0,020.1,18.2,0000.0,0009.65,0003.25,0002.07
2024-03-06 08:20:00,SystemResetWarning,0822.9,5.01,000.00,018.4,017.7,000.0,027.0,020.1,18.2,0000.0,0009.46,0003.13,0001.91
2024-03-06 08:21:00,SystemResetWarning,0823.0,5.01,000.00,018.4,017.7,000.0,027.0,020.1,18.1,0000.0,0009.18,0002.93,0001.72
2024-03-06 08:22:00,SystemResetWarning,0822.9,5.00,000.00,018.4,017.7,000.0,026.9,020.1,18.4,0000.0,0008.72,0002.73,0001.60
2024-03-06 08:23:00,SystemResetWarning,0822.9,4.99,000.00,018.4,017.7,000.0,026.9,020.1,18.5,0000.0,0007.56,0002.49,0001.48
2024-03-06 08:24:00,SystemResetWarning,0823.0,4.99,000.00,018.4,017.7,000.0,026.9,020.1,18.4,0000.0,0007.08,0002.43,0001.45
2024-03-06 08:25:00,SystemResetWarning,0823.1,5.00,000.00,018.4,017.7,000.0,026.9,020.1,18.4,0000.0,0007.42,0002.52,0001.53
2024-03-06 08:26:00,SystemResetWarning,0823.0,5.00,000.00,018.4,017.7,000.0,026.9,020.0,18.2,0000.0,0007.64,0002.56,0001.59
2024-03-06 08:27:00,SystemResetWarning,0823.2,5.00,000.00,018.4,017.7,000.0,026.9,020.0,18.2,0000.0,0007.58,0002.52,0001.58
2024-03-06 08:28:00,SystemResetWarning,0823.0,5.00,000.00,018.4,017.7,000.0,026.9,020.1,18.3,0000.0,0007.25,0002.37,0001.51
2024-03-06 08:29:00,SystemResetWarning,0823.1,5.01,000.00,018.4,017.7,000.0,026.9,020.1,18.3,0000.0,0007.82,0002.29,0001.47
2024-03-06 08:30:00,SystemResetWarning,0823.0,5.01,000.00,018.4,017.7,000.0,026.9,020.1,18.2,0000.0,0008.39,0002.24,0001.44
2024-03-06 08:31:00,SystemResetWarning,0823.0,4.99,000.00,018.4,017.7,000.0,026.9,020.0,18.1,0000.0,0008.94,0002.31,0001.50
2024-03-06 08:32:00,SystemResetWarning,0823.0,5.01,000.00,018.4,017.7,000.0,026.9,020.0,18.1,0000.0,0009.48,0002.46,0001.56
2024-03-06 08:33:00,SystemResetWarning,0823.0,5.00,000.00,018.4,017.7,000.0,026.8,020.1,18.2,0000.0,0009.30,0002.58,0001.63
2024-03-06 08:34:00,SystemResetWarning,0822.9,5.00,000.00,018.4,017.7,000.0,026.8,020.0,18.2,0000.0,0009.67,0002.70,0001.69
2024-03-06 08:35:00,SystemResetWarning,0822.9,4.99,000.00,018.4,017.8,000.0,026.8,020.0,18.2,0000.0,0009.50,0002.68,0001.66
2024-03-06 08:36:00,SystemResetWarning,0823.0,4.99,000.00,018.4,017.8,000.0,026.8,020.1,18.1,0000.0,0009.34,0002.60,0001.59
2024-03-06 08:37:00,SystemResetWarning,0823.1,5.00,000.00,018.4,017.8,000.0,026.8,020.1,18.1,0000.0,0008.98,0002.45,0001.51
2024-03-06 08:38:00,SystemResetWarning,0823.4,5.01,000.00,018.4,017.8,000.0,026.8,020.1,18.1,0000.0,0008.90,0002.44,0001.52
2024-03-06 08:39:00,SystemResetWarning,0823.0,5.01,000.00,018.4,017.8,000.0,026.8,020.1,18.0,0000.0,0009.00,0002.62,0001.62
2024-03-06 08:40:00,SystemResetWarning,0823.0,4.99,000.00,018.4,017.8,000.0,026.8,020.1,18.0,0000.0,0008.57,0002.81,0001.74
2024-03-06 08:41:00,SystemResetWarning,0823.0,4.99,000.00,018.4,017.8,000.0,026.8,020.1,18.1,0000.0,0008.62,0003.02,0001.85
2024-03-06 08:42:00,SystemResetWarning,0823.2,5.00,000.00,018.4,017.8,000.0,026.8,020.1,18.1,0000.0,0008.48,0003.09,0001.90
2024-03-06 08:43:00,SystemResetWarning,0822.9,5.00,000.00,018.4,017.7,000.0,026.8,020.1,18.2,0000.0,0008.20,0003.12,0001.95
2024-03-06 08:44:00,SystemResetWarning,0823.2,5.00,000.00,018.4,017.7,000.0,026.8,020.1,18.3,0000.0,0009.10,0003.13,0002.01
2024-03-06 08:45:00,SystemResetWarning,0822.8,5.00,000.00,018.4,017.7,000.0,026.8,020.1,18.2,0000.0,0009.88,0003.20,0002.12
2024-03-06 08:46:00,SystemResetWarning,0822.7,5.01,000.00,018.4,017.7,000.0,026.8,020.1,17.9,0000.0,0010.18,0003.26,0002.23
2024-03-06 08:47:00,SystemResetWarning,0822.8,5.00,000.00,018.4,017.7,000.0,026.8,020.0,18.1,0000.0,0010.64,0003.36,0002.39
2024-03-06 08:48:00,SystemResetWarning,0822.7,5.00,000.00,018.4,017.7,000.0,026.8,020.0,18.1,0000.0,0011.23,0003.52,0002.55
2024-03-06 08:49:00,SystemResetWarning,0823.1,5.00,000.00,018.4,017.6,000.0,026.8,020.1,18.0,0000.0,0012.07,0003.67,0002.74
2024-03-06 08:50:00,SystemResetWarning,0823.0,5.00,000.00,018.4,017.6,000.0,026.8,020.1,18.1,0000.0,0015.33,0003.78,0002.89
2024-03-06 08:51:00,SystemResetWarning,0822.8,5.00,000.00,018.3,017.6,000.0,026.8,020.0,18.0,0000.0,0016.31,0003.87,0003.04
2024-03-06 08:52:00,SystemResetWarning,0822.9,5.00,000.00,018.3,017.6,000.0,026.8,020.0,18.0,0000.0,0017.56,0003.94,0003.11
2024-03-06 08:53:00,SystemResetWarning,0822.8,5.00,000.00,018.3,017.6,000.0,026.8,020.0,18.0,0000.0,0017.30,0004.00,0003.14
2024-03-06 08:54:00,SystemResetWarning,0822.7,5.00,000.00,018.3,017.6,000.0,026.8,020.0,17.9,0000.0,0017.28,0004.02,0003.15
2024-03-06 08:55:00,SystemResetWarning,0822.7,5.01,000.00,018.3,017.6,000.0,026.8,020.0,17.8,0000.0,0016.73,0004.04,0003.18
2024-03-06 08:56:00,SystemResetWarning,0822.6,5.01,000.00,018.3,017.6,000.0,026.8,020.0,17.8,0000.0,0015.60,0004.03,0003.16
2024-03-06 08:57:00,SystemResetWarning,0822.8,5.00,000.00,018.3,017.7,000.0,026.8,020.0,17.7,0000.0,0015.24,0004.03,0003.16
2024-03-06 08:58:00,SystemResetWarning,0822.7,5.00,000.00,018.4,017.7,000.0,026.8,020.0,17.8,0000.0,0015.05,0004.08,0003.15
2024-03-06 08:59:00,SystemResetWarning,0822.6,5.00,000.00,018.4,017.7,000.0,026.8,020.0,17.7,0000.0,0015.04,0004.14,0003.18
